| time (UTC) | temp F | wind direction | speed knots | gust knots | rain 1hr in | rain 24hr in | rain mn in | humidity % | barometer mb |
| 20260503193228 | 63 | 214 | 2.6 | 10.4 | 0.00 | 0.00 | 0.00 | 40 | 1010.5 |
| 20260503192241 | 63 | 294 | 3.5 | 11.3 | 0.00 | 0.00 | 0.00 | 39 | 1010.5 |
| 20260503191214 | 63 | 191 | 1.7 | 8.7 | 0.00 | 0.00 | 0.00 | 42 | 1010.6 |
| 20260503190217 | 63 | 253 | 5.2 | 11.3 | 0.00 | 0.00 | 0.00 | 39 | 1010.7 |
| 20260503185228 | 62 | 236 | 2.6 | 7.8 | 0.00 | 0.00 | 0.00 | 39 | 1010.8 |
| 20260503184220 | 63 | 323 | 4.3 | 12.2 | 0.00 | 0.00 | 0.00 | 40 | 1010.8 |
| 20260503183214 | 61 | 242 | 3.5 | 15.6 | 0.00 | 0.00 | 0.00 | 38 | 1011.3 |
| 20260503182246 | 62 | 313 | 4.3 | 12.2 | 0.00 | 0.00 | 0.00 | 40 | 1011.2 |
| 20260503181217 | 62 | 242 | 2.6 | 9.6 | 0.00 | 0.00 | 0.00 | 40 | 1011.4 |
| 20260503175215 | 61 | 260 | 3.5 | 13.9 | 0.00 | 0.00 | 0.00 | 43 | 1011.7 |
| 20260503174226 | 60 | 243 | 2.6 | 7.8 | 0.00 | 0.00 | 0.00 | 43 | 1011.9 |
| 20260503173237 | 60 | 239 | 1.7 | 9.6 | 0.00 | 0.00 | 0.00 | 45 | 1012.0 |
| 20260503172210 | 59 | 246 | 3.5 | 7.0 | 0.00 | 0.00 | 0.00 | 45 | 1012.2 |
| 20260503171222 | 59 | 255 | 2.6 | 7.0 | 0.00 | 0.00 | 0.00 | 44 | 1012.3 |
| 20260503170224 | 58 | 254 | 2.6 | 9.6 | 0.00 | 0.00 | 0.00 | 44 | 1012.5 |
| 20260503160213 | 57 | 290 | 0.9 | 10.4 | 0.00 | 0.00 | 0.00 | 45 | 1013.1 |
| 20260503150215 | 59 | 274 | 2.6 | 11.3 | 0.00 | 0.00 | 0.00 | 43 | 1013.3 |
| 20260503140222 | 54 | 250 | 2.6 | 7.8 | 0.00 | 0.00 | 0.00 | 50 | 1013.5 |
| 20260503131219 | 50 | 256 | 2.6 | 6.1 | 0.00 | 0.00 | 0.00 | 54 | 1013.7 |
| 20260503130224 | 49 | 259 | 1.7 | 7.8 | 0.00 | 0.00 | 0.00 | 55 | 1013.7 |
| 20260503110215 | 0 | 0.0 | 0.0 | 0.00 | 0.00 | 0.00 | 1014.1 | ||
| 20260503100210 | 0 | 0.0 | 0.0 | 0.00 | 0.00 | 0.00 | 1014.3 | ||
| 20260503090219 | 33 | 291 | 0.0 | 0.0 | 0.00 | 0.00 | 0.00 | 74 | 1014.7 |
| 20260503081218 | 36 | 291 | 0.0 | 0.9 | 0.00 | 0.00 | 0.00 | 67 | 1014.9 |
| 20260503080246 | 36 | 297 | 0.0 | 1.7 | 0.00 | 0.00 | 0.00 | 69 | 1015.0 |
| 20260503072212 | 33 | 284 | 0.0 | 0.0 | 0.00 | 0.00 | 0.00 | 77 | 1015.1 |
| 20260503071223 | 32 | 284 | 0.0 | 0.9 | 0.00 | 0.00 | 0.00 | 78 | 1015.1 |
| 20260503070227 | 32 | 284 | 0.0 | 0.0 | 0.00 | 0.00 | 0.00 | 79 | 1015.1 |
| 20260503060213 | 33 | 283 | 0.0 | 0.0 | 0.00 | 0.00 | 0.00 | 80 | 1015.6 |
| 20260503054236 | 33 | 284 | 0.0 | 0.0 | 0.00 | 0.00 | 0.00 | 79 | 1015.7 |
| 20260503053209 | 34 | 284 | 0.0 | 0.0 | 0.00 | 0.00 | 0.00 | 80 | 1015.8 |
| 20260503052221 | 34 | 284 | 0.0 | 0.0 | 0.00 | 0.00 | 0.00 | 78 | 1015.8 |
| 20260503051211 | 34 | 284 | 0.0 | 0.9 | 0.00 | 0.00 | 0.00 | 80 | 1015.9 |
| 20260503050215 | 33 | 283 | 0.0 | 0.0 | 0.00 | 0.00 | 0.00 | 79 | 1015.9 |
| 20260503045210 | 33 | 282 | 0.0 | 0.0 | 0.00 | 0.00 | 0.00 | 79 | 1015.9 |
| 20260503044220 | 33 | 283 | 0.0 | 0.0 | 0.00 | 0.00 | 0.00 | 79 | 1016.0 |
| 20260503043211 | 33 | 283 | 0.0 | 0.0 | 0.00 | 0.00 | 0.00 | 79 | 1016.0 |
| 20260503042222 | 34 | 283 | 0.0 | 0.0 | 0.00 | 0.00 | 0.00 | 79 | 1015.9 |
| 20260503041235 | 34 | 283 | 0.0 | 0.0 | 0.00 | 0.00 | 0.00 | 80 | 1016.0 |
| 20260503040218 | 34 | 282 | 0.0 | 0.0 | 0.00 | 0.00 | 0.00 | 79 | 1016.1 |
| 20260503035210 | 34 | 283 | 0.0 | 0.0 | 0.00 | 0.00 | 0.00 | 78 | 1016.2 |
| 20260503034241 | 34 | 283 | 0.0 | 0.0 | 0.00 | 0.00 | 0.00 | 78 | 1016.2 |
| 20260503033214 | 34 | 282 | 0.0 | 0.0 | 0.00 | 0.00 | 0.00 | 78 | 1016.2 |
| 20260503032226 | 34 | 282 | 0.0 | 0.0 | 0.00 | 0.00 | 0.00 | 78 | 1016.2 |
| 20260503031216 | 34 | 283 | 0.0 | 0.0 | 0.00 | 0.00 | 0.00 | 78 | 1016.3 |
| 20260503030241 | 34 | 283 | 0.0 | 0.0 | 0.00 | 0.00 | 0.00 | 78 | 1016.3 |
| 20260503025214 | 35 | 282 | 0.0 | 0.0 | 0.00 | 0.00 | 0.00 | 78 | 1016.3 |
| 20260503024225 | 35 | 282 | 0.0 | 0.0 | 0.00 | 0.00 | 0.00 | 78 | 1016.4 |
| 20260503023237 | 35 | 282 | 0.0 | 0.0 | 0.00 | 0.00 | 0.00 | 77 | 1016.5 |
| 20260503022227 | 35 | 282 | 0.0 | 0.0 | 0.00 | 0.00 | 0.00 | 76 | 1016.5 |
| 20260503021222 | 36 | 283 | 0.0 | 0.0 | 0.00 | 0.00 | 0.00 | 75 | 1016.6 |
| 20260503020225 | 36 | 283 | 0.0 | 0.0 | 0.00 | 0.00 | 0.00 | 75 | 1016.4 |
| 20260503015236 | 36 | 282 | 0.0 | 0.0 | 0.00 | 0.00 | 0.00 | 74 | 1016.4 |
| 20260503014246 | 36 | 283 | 0.0 | 0.0 | 0.00 | 0.00 | 0.00 | 72 | 1016.3 |
| 20260503013220 | 37 | 283 | 0.0 | 0.0 | 0.00 | 0.00 | 0.00 | 71 | 1016.3 |
| 20260503012211 | 38 | 282 | 0.0 | 0.0 | 0.00 | 0.00 | 0.00 | 69 | 1016.3 |
| 20260503011222 | 38 | 282 | 0.0 | 0.0 | 0.00 | 0.00 | 0.00 | 68 | 1016.3 |
| 20260503010224 | 39 | 283 | 0.0 | 0.0 | 0.00 | 0.00 | 0.00 | 65 | 1016.3 |
| 20260503005218 | 41 | 282 | 0.0 | 0.0 | 0.00 | 0.00 | 0.00 | 62 | 1016.2 |
| 20260503004248 | 42 | 283 | 0.0 | 0.0 | 0.00 | 0.00 | 0.00 | 60 | 1016.2 |
| 20260503003220 | 43 | 282 | 0.0 | 0.0 | 0.00 | 0.00 | 0.00 | 56 | 1016.2 |
| 20260503002212 | 45 | 282 | 0.0 | 0.0 | 0.00 | 0.00 | 0.00 | 53 | 1016.1 |
| 20260503001226 | 46 | 282 | 0.0 | 0.9 | 0.00 | 0.00 | 0.00 | 51 | 1016.0 |
| 20260503000211 | 46 | 285 | 0.0 | 1.7 | 0.00 | 0.00 | 0.00 | 48 | 1016.1 |
| 20260502235223 | 47 | 273 | 0.0 | 3.5 | 0.00 | 0.00 | 0.00 | 48 | 1016.1 |
| 20260502234212 | 47 | 283 | 1.7 | 4.3 | 0.00 | 0.00 | 0.00 | 47 | 1016.1 |
| 20260502233228 | 48 | 297 | 1.7 | 5.2 | 0.00 | 0.00 | 0.00 | 46 | 1016.1 |
| 20260502232219 | 48 | 319 | 0.9 | 5.2 | 0.00 | 0.00 | 0.00 | 47 | 1016.2 |
| 20260502231226 | 48 | 322 | 2.6 | 4.3 | 0.00 | 0.00 | 0.00 | 45 | 1016.2 |
| 20260502230211 | 48 | 242 | 0.9 | 5.2 | 0.00 | 0.00 | 0.00 | 46 | 1016.2 |
| 20260502225227 | 48 | 291 | 1.7 | 4.3 | 0.00 | 0.00 | 0.00 | 46 | 1016.2 |
| 20260502224239 | 48 | 274 | 1.7 | 5.2 | 0.00 | 0.00 | 0.00 | 47 | 1016.3 |
| 20260502223209 | 47 | 280 | 1.7 | 9.6 | 0.00 | 0.00 | 0.00 | 48 | 1016.3 |
| 20260502222241 | 47 | 300 | 1.7 | 6.1 | 0.00 | 0.00 | 0.00 | 47 | 1016.3 |
| 20260502221234 | 48 | 294 | 1.7 | 7.8 | 0.00 | 0.00 | 0.00 | 46 | 1016.3 |
| 20260502220218 | 48 | 300 | 1.7 | 4.3 | 0.00 | 0.00 | 0.00 | 46 | 1016.3 |
| 20260502215228 | 47 | 281 | 1.7 | 6.1 | 0.00 | 0.00 | 0.00 | 48 | 1016.3 |
| 20260502214220 | 47 | 340 | 2.6 | 7.8 | 0.00 | 0.00 | 0.00 | 47 | 1016.3 |
| 20260502213214 | 48 | 277 | 3.5 | 7.0 | 0.00 | 0.00 | 0.00 | 45 | 1016.3 |
| 20260502212226 | 49 | 276 | 1.7 | 5.2 | 0.00 | 0.00 | 0.00 | 47 | 1016.3 |
| 20260502211236 | 48 | 293 | 2.6 | 6.1 | 0.00 | 0.00 | 0.00 | 48 | 1016.4 |
| 20260502210219 | 47 | 276 | 1.7 | 7.0 | 0.00 | 0.00 | 0.00 | 46 | 1016.4 |
| 20260502205215 | 48 | 271 | 2.6 | 7.0 | 0.00 | 0.00 | 0.00 | 46 | 1016.5 |
| 20260502204246 | 48 | 290 | 2.6 | 7.0 | 0.00 | 0.00 | 0.00 | 46 | 1016.5 |
| 20260502203215 | 48 | 273 | 1.7 | 7.0 | 0.00 | 0.00 | 0.00 | 47 | 1016.6 |
| 20260502202227 | 47 | 311 | 0.9 | 5.2 | 0.00 | 0.00 | 0.00 | 48 | 1016.7 |
| 20260502201223 | 47 | 290 | 2.6 | 7.0 | 0.00 | 0.00 | 0.00 | 46 | 1016.8 |
| 20260502200227 | 47 | 326 | 3.5 | 7.0 | 0.00 | 0.00 | 0.00 | 46 | 1016.9 |
| 20260502195218 | 47 | 284 | 2.6 | 7.0 | 0.00 | 0.00 | 0.00 | 46 | 1016.9 |
| 20260502194212 | 47 | 322 | 1.7 | 6.1 | 0.00 | 0.00 | 0.00 | 45 | 1017.0 |